Weather observations for the past three days for
Charleston Executive Airport
Imperial (Metric)
Date Time (edt) Wind (mph) Vis. (mi.) Weather Sky Cond. Temperature (ºF) Relative Humidity Wind Chill (°F) Heat Index (°F) Pressure Precipitation (in)
Air Dwpt 6 hour altimeter (in) sea level (mb) 1 hr 3 hr 6 hr
Max. Min.
20 21:15 Calm 4.00 Light Rain Fog/Mist FEW030 BKN043 OVC110 75.2 75.2 100% 73 30.12 0.0
20 20:55 Calm 9.00 Thunderstorm in Vicinity Rain SCT041 BKN070 OVC110 77 73.4 89% 78 30.13 0.0 0.03
20 20:35 SW 6 8.00 Thunderstorm in Vicinity Drizzle SCT046 BKN060 BKN075 75.2 73.4 94% 74 30.11 0.0
20 20:15 W 6 4.00 Light Rain Fog/Mist FEW038 SCT050 BKN120 77 75.2 94% 78 30.11 0.0
20 19:55 S 6 10.00 Thunderstorm CLR 75.2 73.4 94% 74 30.11 0.0
20 19:35 SW 6 8.00 Thunderstorm in Vicinity FEW120 75.2 73.4 94% 74 30.09 0.0
20 19:15 SW 6 10.00 Partly Cloudy SCT120 75.2 75.2 100% 73 30.09 0.0
20 18:55 W 3 10.00 Thunderstorm in Vicinity CLR 75.2 75.2 100% 73 30.09 0.0 0.03
20 18:35 Calm 10.00 Partly Cloudy FEW055 FEW065 SCT090 75.2 75.2 100% 73 30.09 0.0
20 18:15 W 8 2.00 Thunderstorm in Vicinity Rain Fog/Mist SCT037 BKN055 BKN065 77 73.4 89% 78 30.09 0.0
20 17:55 W 15 10.00 Overcast BKN034 BKN046 OVC055 80.6 69.8 70% 84 30.1 0.0
20 17:35 NW 5 10.00 Thunderstorm in Vicinity SCT029 BKN033 OVC041 82.4 69.8 66% 86 30.1 0.0
20 17:15 NW 9 G 16 10.00 Thunderstorm in Vicinity SCT027 SCT031 BKN043 86 71.6 62% 92 30.1 0.0
20 16:55 S 12 10.00 Thunderstorm CLR 89.6 77 67% 103 30.08 0.0
20 16:35 S 12 10.00 Thunderstorm in Vicinity CLR 89.6 77 67% 103 30.08 0.0
20 16:15 S 12 10.00 Fair CLR 89.6 77 67% 103 30.08 0.0
20 15:55 S 14 10.00 Thunderstorm in Vicinity CLR 89.6 77 67% 103 30.08 0.0
20 15:35 S 12 10.00 A Few Clouds FEW030 91.4 77 63% 105 30.09 0.0
20 15:15 S 12 10.00 A Few Clouds FEW030 89.6 77 67% 103 30.1 0.0
20 14:55 SW 8 G 15 10.00 A Few Clouds FEW027 91.4 77 63% 105 30.1 0.0
20 14:35 S 7 10.00 A Few Clouds FEW028 FEW065 89.6 77 67% 103 30.1 0.0
20 14:15 S 8 10.00 Partly Cloudy FEW026 SCT030 SCT039 89.6 77 67% 103 30.1 0.0
20 13:55 S 12 10.00 Mostly Cloudy FEW029 BKN039 89.6 77 67% 103 30.11 0.0
20 13:35 S 12 10.00 Mostly Cloudy SCT028 BKN035 BKN044 89.6 77 67% 103 30.11 0.0
20 13:15 Vrbl 5 10.00 Mostly Cloudy FEW028 SCT037 BKN046 87.8 77 70% 100 30.12 0.0
20 12:35 Calm 10.00 Mostly Cloudy FEW027 SCT034 BKN048 89.6 77 67% 103 30.14 0.0
20 12:15 W 7 G 14 10.00 Mostly Cloudy SCT026 BKN034 BKN040 87.8 77 70% 100 30.14 0.0
20 11:55 W 5 G 13 10.00 Partly Cloudy FEW025 SCT029 89.6 77 67% 103 30.14 0.0
20 11:35 W 6 10.00 Partly Cloudy SCT027 86 75.2 70% 95 30.14 0.0
20 11:15 SW 6 10.00 A Few Clouds FEW025 87.8 75.2 66% 98 30.13 0.0
20 10:55 W 9 10.00 Fair CLR 86 77 75% 97 30.14 0.0
20 10:35 SW 6 10.00 A Few Clouds FEW070 84.2 77 79% 94 30.14 0.0
20 10:15 SW 5 10.00 Mostly Cloudy BKN070 86 77 75% 97 30.15 0.0
20 09:55 W 6 10.00 Fair CLR 84.2 75.2 74% 92 30.15 0.0
20 09:35 Vrbl 6 10.00 A Few Clouds FEW075 FEW085 84.2 77 79% 94 30.14 0.0
20 09:15 W 7 10.00 Fair CLR 82.4 75.2 79% 89 30.14 0.0
20 08:55 W 6 10.00 A Few Clouds FEW055 82.4 77 84% 91 30.14 0.0
20 08:35 NW 7 10.00 Partly Cloudy SCT055 82.4 77 84% 91 30.13 0.0
20 08:15 NW 5 10.00 Fair CLR 82.4 77 84% 91 30.13 0.0
20 07:55 NW 3 10.00 Fair CLR 80.6 77 89% 87 30.12 0.0
20 07:35 Calm 9.00 Partly Cloudy SCT036 78.8 77 94% 83 30.12 0.0
20 07:15 Calm 10.00 Mostly Cloudy BKN035 BKN040 77 77 100% 78 30.12 0.0
20 06:55 Calm 10.00 Partly Cloudy FEW033 SCT040 75.2 75.2 100% 73 30.12 0.0
20 06:35 Calm 9.00 A Few Clouds FEW031 FEW039 75.2 75.2 100% 73 30.11 0.0
20 06:15 Calm 9.00 Partly Cloudy SCT023 75.2 75.2 100% 73 30.11 0.0
20 05:55 Calm 10.00 Mostly Cloudy BKN023 75.2 75.2 100% 73 30.11 0.0
20 05:35 Calm 10.00 Partly Cloudy SCT022 SCT027 75.2 75.2 100% 73 30.1 0.0
20 05:15 Calm 10.00 Fair CLR 75.2 75.2 100% 73 30.09 0.0
20 04:55 Calm 9.00 Partly Cloudy FEW025 SCT031 75.2 75.2 100% 73 30.09 0.0
20 04:35 Calm 10.00 Overcast BKN023 OVC027 75.2 75.2 100% 73 30.09 0.0
20 04:15 Calm 10.00 Mostly Cloudy BKN022 75.2 75.2 100% 73 30.09 0.0
20 03:55 Calm 10.00 Partly Cloudy SCT022 75.2 75.2 100% 73 30.08 0.0
20 03:35 Calm 9.00 Fair CLR 75.2 75.2 100% 73 30.08 0.0
20 03:15 Calm 10.00 Fair CLR 75.2 75.2 100% 73 30.08 0.0
20 02:55 Calm 8.00 Fair CLR 75.2 75.2 100% 73 30.09 0.0
20 02:35 Calm 10.00 Fair CLR 75.2 75.2 100% 73 30.09 0.0
20 02:15 Calm 8.00 Fair CLR 75.2 75.2 100% 73 30.09 0.0
20 01:55 Calm 8.00 Partly Cloudy SCT024 75.2 75.2 100% 73 30.09 0.0
20 01:35 Calm 10.00 Mostly Cloudy SCT022 BKN026 75.2 75.2 100% 73 30.1 0.0
20 01:15 Calm 9.00 Fair CLR 75.2 75.2 100% 73 30.1 0.0
20 00:55 Calm 8.00 Fair CLR 75.2 75.2 100% 73 30.1 0.0
20 00:35 Calm 9.00 Fair CLR 75.2 75.2 100% 73 30.1 0.0
20 00:15 Calm 10.00 Fair CLR 75.2 75.2 100% 73 30.1 0.0
19 23:55 Calm 10.00 Partly Cloudy FEW046 FEW060 SCT075 75.2 75.2 100% 73 30.1 0.0 0.01
19 23:35 Calm 10.00 Light Drizzle FEW040 SCT049 BKN060 75.2 75.2 100% 73 30.11 0.0
19 23:15 W 3 9.00 Light Rain SCT047 SCT055 BKN065 75.2 75.2 100% 73 30.12 0.0
19 22:55 W 6 9.00 Light Rain BKN043 BKN060 OVC075 75.2 75.2 100% 73 30.11 0.0 0.03
19 22:35 W 6 8.00 Light Rain BKN042 BKN048 OVC060 75.2 75.2 100% 73 30.11 0.0
19 22:15 W 8 8.00 Light Rain FEW040 SCT046 BKN060 75.2 75.2 100% 73 30.11 0.0
19 21:55 SW 6 9.00 Light Rain SCT043 BKN055 OVC075 77 75.2 94% 78 30.11 0.0 0.02
19 21:35 SW 5 8.00 Light Rain FEW037 BKN043 OVC065 77 77 100% 78 30.1 0.0
19 21:15 W 5 7.00 Light Rain SCT038 BKN044 OVC070 77 77 100% 78 30.1 0.0
19 20:55 W 6 9.00 Light Rain SCT043 BKN055 BKN075 77 77 100% 78 30.1 0.0 0.02
19 20:35 W 6 8.00 Light Drizzle FEW041 SCT048 BKN055 78.8 78.8 100% 83 30.1 0.0
19 20:15 W 7 7.00 Thunderstorm in Vicinity Rain CLR 78.8 77 94% 83 30.09 0.0
19 19:55 W 6 6.00 Light Rain Fog/Mist FEW021 FEW028 SCT044 80.6 78.8 94% 88 30.08 0.0
19 19:35 SW 10 G 16 9.00 Light Rain BKN020 BKN028 BKN035 84.2 77 79% 94 30.07 0.0
19 19:15 S 9 8.00 Mostly Cloudy BKN017 BKN024 84.2 78.8 84% 96 30.06 0.0
19 18:55 S 9 10.00 Partly Cloudy SCT017 84.2 78.8 84% 96 30.05 0.0
19 18:35 S 12 10.00 Mostly Cloudy BKN018 84.2 78.8 84% 96 30.05 0.0
19 18:15 S 8 10.00 Light Drizzle BKN019 BKN025 BKN031 84.2 78.8 84% 96 30.05 0.0
19 17:55 S 10 10.00 Thunderstorm in Vicinity BKN019 BKN025 84.2 77 79% 94 30.05 0.0
19 17:35 S 8 10.00 Partly Cloudy SCT018 84.2 77 79% 94 30.04 0.0
19 17:15 S 9 10.00 Partly Cloudy SCT019 SCT025 84.2 77 79% 94 30.04 0.0
19 16:55 S 7 10.00 Partly Cloudy FEW019 SCT027 84.2 77 79% 94 30.05 0.0
19 16:35 S 7 10.00 Thunderstorm in Vicinity NULL 84.2 77 79% 94 30.05 0.0
19 16:15 S 9 0.00 Thunderstorm in Vicinity NULL 0 0 0% 30.05 0.0
19 15:55 S 8 10.00 Thunderstorm in Vicinity OVC026 84.2 75.2 74% 92 30.04 0.0
19 15:35 S 9 10.00 Thunderstorm in Vicinity BKN026 OVC032 84.2 75.2 74% 92 30.06 0.0
19 15:15 S 8 10.00 Thunderstorm BKN025 BKN034 OVC039 84.2 75.2 74% 92 30.05 0.0
19 14:55 S 10 10.00 Overcast BKN024 OVC032 84.2 77 79% 94 30.06 0.0
19 14:35 Vrbl 6 G 13 10.00 Overcast BKN022 BKN028 OVC036 86 77 75% 97 30.07 0.0
19 14:15 S 9 10.00 Thunderstorm SCT032 BKN039 BKN060 86 77 75% 97 30.07 0.0
19 13:55 S 13 10.00 Thunderstorm CLR 89.6 77 67% 103 30.07 0.0
19 13:35 S 12 10.00 Fair CLR 89.6 77 67% 103 30.08 0.0
19 13:15 Vrbl 7 10.00 Fair CLR 89.6 75.2 63% 100 30.08 0.0
19 12:55 S 9 10.00 A Few Clouds FEW030 89.6 77 67% 103 30.09 0.0
19 12:35 SE 8 10.00 A Few Clouds FEW032 87.8 75.2 66% 98 30.09 0.0
19 12:15 Vrbl 7 9.00 Fair CLR 87.8 75.2 66% 98 30.1 0.0
19 11:55 Vrbl 6 10.00 Fair CLR 86 75.2 70% 95 30.1 0.0
19 11:15 Vrbl 5 10.00 A Few Clouds FEW050 84.2 75.2 74% 92 30.11 0.0
19 10:55 SW 5 10.00 Partly Cloudy SCT050 84.2 75.2 74% 92 30.11 0.0
19 10:35 SW 6 10.00 A Few Clouds FEW070 84.2 75.2 74% 92 30.11 0.0
19 10:15 SW 5 10.00 Fair CLR 84.2 75.2 74% 92 30.11 0.0
19 09:55 SW 6 10.00 Fair CLR 84.2 75.2 74% 92 30.1 0.0
19 09:35 W 8 10.00 A Few Clouds FEW044 86 75.2 70% 95 30.09 0.0
19 09:15 W 6 10.00 Thunderstorm in Vicinity FEW044 84.2 75.2 74% 92 30.08 0.0
19 08:55 W 7 10.00 Thunderstorm in Vicinity FEW043 82.4 73.4 74% 88 30.08 0.0
19 08:35 W 6 10.00 Thunderstorm in Vicinity CLR 82.4 73.4 74% 88 30.08 0.0
19 08:15 NW 7 10.00 Fair CLR 82.4 75.2 79% 89 30.07 0.0
19 07:55 W 5 10.00 Fair CLR 80.6 75.2 84% 86 30.07 0.0
19 07:35 W 3 10.00 Fair CLR 78.8 75.2 89% 82 30.07 0.0
19 07:15 Calm 10.00 Partly Cloudy SCT045 SCT055 77 75.2 94% 78 30.06 0.0
19 06:55 Calm 10.00 A Few Clouds FEW050 77 75.2 94% 78 30.06 0.0
19 06:35 W 5 10.00 Partly Cloudy SCT037 SCT042 77 75.2 94% 78 30.06 0.0
19 06:15 W 3 10.00 Mostly Cloudy BKN039 77 75.2 94% 78 30.05 0.0
19 05:55 Calm 10.00 A Few Clouds FEW036 75.2 73.4 94% 74 30.04 0.0
19 05:35 Calm 10.00 Fair CLR 77 73.4 89% 78 30.03 0.0
19 05:15 Calm 10.00 Fair CLR 77 73.4 89% 78 30.03 0.0
19 04:55 W 3 10.00 Fair CLR 77 73.4 89% 78 30.03 0.0
19 04:35 W 5 10.00 Fair CLR 77 73.4 89% 78 30.02 0.0
19 04:15 W 3 10.00 Fair CLR 77 73.4 89% 78 30.02 0.0
19 03:55 Calm 10.00 Fair CLR 77 73.4 89% 78 30.02 0.0
19 03:35 W 5 10.00 Fair CLR 77 73.4 89% 78 30.03 0.0
19 03:15 SW 3 10.00 Fair CLR 77 73.4 89% 78 30.02 0.0
19 02:55 Calm 10.00 Fair CLR 77 73.4 89% 78 30.02 0.0
19 02:35 Calm 10.00 Fair CLR 78.8 73.4 84% 82 30.03 0.0
19 02:15 Calm 10.00 Fair CLR 78.8 73.4 84% 82 30.02 0.0
19 01:55 W 3 10.00 Fair CLR 80.6 73.4 79% 85 30.03 0.0
19 01:35 SW 5 10.00 Fair CLR 80.6 73.4 79% 85 30.03 0.0
19 01:15 W 5 10.00 Fair CLR 80.6 73.4 79% 85 30.04 0.0
19 00:55 W 6 10.00 Fair CLR 80.6 73.4 79% 85 30.04 0.0
19 00:35 W 8 10.00 Fair CLR 80.6 73.4 79% 85 30.05 0.0
19 00:15 W 6 10.00 Fair CLR 80.6 75.2 84% 86 30.05 0.0
18 23:55 W 5 10.00 Fair CLR 80.6 75.2 84% 86 30.05 0.0
18 23:35 W 3 10.00 Fair CLR 80.6 75.2 84% 86 30.04 0.0
18 23:15 W 3 10.00 A Few Clouds FEW120 80.6 75.2 84% 86 30.03 0.0
18 22:55 SW 5 10.00 A Few Clouds FEW120 82.4 75.2 79% 89 30.03 0.0
18 22:35 W 5 10.00 Fair CLR 82.4 75.2 79% 89 30.03 0.0
18 22:15 W 6 G 13 10.00 Fair CLR 82.4 75.2 79% 89 30.03 0.0
18 21:55 SW 10 10.00 Fair CLR 82.4 75.2 79% 89 30.02 0.0
18 21:35 SW 9 10.00 Fair CLR 82.4 73.4 74% 88 30.02 0.0
18 21:15 SW 8 10.00 Fair CLR 84.2 71.6 66% 90 30.02 0.0
18 20:55 W 7 10.00 Fair CLR 84.2 71.6 66% 90 30.02 0.0
18 20:35 SW 5 G 12 10.00 Fair CLR 82.4 71.6 70% 87 30.01 0.0
18 20:15 SW 12 G 17 10.00 Fair CLR 84.2 69.8 62% 88 29.99 0.0
18 19:55 SW 9 G 20 10.00 Fair CLR 84.2 69.8 62% 88 29.98 0.0
18 19:35 SW 8 G 17 10.00 Fair CLR 84.2 73.4 70% 91 29.98 0.0
18 19:15 SW 14 10.00 Partly Cloudy SCT020 SCT024 86 77 75% 97 29.98 0.0
18 18:55 SW 16 G 24 10.00 Mostly Cloudy BKN021 86 77 75% 97 29.98 0.0
18 18:35 SW 17 G 24 9.00 Fair CLR 86 77 75% 97 29.97 0.0
18 18:15 SW 15 G 23 10.00 Fair CLR 86 77 75% 97 29.97 0.0
18 17:55 SW 14 G 21 10.00 Fair CLR 86 75.2 70% 95 29.97 0.0
18 17:35 SW 16 G 24 10.00 Fair CLR 87.8 77 70% 100 29.97 0.0
18 17:15 S 18 G 24 10.00 Fair CLR 89.6 77 67% 103 29.97 0.0
18 16:55 S 15 G 22 10.00 Fair CLR 89.6 77 67% 103 29.98 0.0
18 16:35 SW 16 10.00 Fair CLR 89.6 77 67% 103 29.99 0.0
18 16:15 S 16 10.00 Fair CLR 89.6 77 67% 103 29.99 0.0
18 15:55 S 16 G 22 10.00 Fair CLR 89.6 77 67% 103 29.99 0.0
18 15:35 SW 13 G 18 10.00 Fair CLR 89.6 77 67% 103 30 0.0
18 15:15 S 16 10.00 Fair CLR 89.6 77 67% 103 30.01 0.0
18 14:55 SW 13 G 20 10.00 Fair CLR 89.6 77 67% 103 30.02 0.0
18 14:35 SW 14 10.00 Fair CLR 89.6 75.2 63% 100 30.02 0.0
18 14:15 S 14 G 20 10.00 Fair CLR 89.6 75.2 63% 100 30.03 0.0
18 13:55 S 16 10.00 Fair CLR 89.6 75.2 63% 100 30.03 0.0
18 13:35 S 13 10.00 Fair CLR 87.8 77 70% 100 30.04 0.0
18 13:15 S 13 10.00 Fair CLR 86 77 75% 97 30.05 0.0
18 12:55 SW 13 10.00 Fair CLR 87.8 75.2 66% 98 30.05 0.0
18 12:35 SW 10 10.00 Fair CLR 87.8 75.2 66% 98 30.06 0.0
18 12:15 Vrbl 6 10.00 Fair CLR 87.8 75.2 66% 98 30.05 0.0
18 11:55 SW 8 10.00 Fair CLR 86 73.4 66% 93 30.06 0.0
18 11:35 SW 8 10.00 Fair CLR 84.2 75.2 74% 92 30.06 0.0
18 11:15 SW 8 10.00 Fair CLR 84.2 73.4 70% 91 30.06 0.0
18 10:55 SW 9 10.00 Fair CLR 84.2 73.4 70% 91 30.06 0.0
18 10:35 W 8 10.00 Fair CLR 84.2 73.4 70% 91 30.05 0.0
18 10:15 W 9 10.00 Fair CLR 84.2 73.4 70% 91 30.05 0.0
18 09:55 W 9 10.00 Fair CLR 82.4 73.4 74% 88 30.05 0.0
18 09:35 W 7 10.00 Fair CLR 80.6 73.4 79% 85 30.06 0.0
18 09:15 SW 6 10.00 Fair CLR 80.6 73.4 79% 85 30.05 0.0
18 08:55 SW 8 10.00 Fair CLR 80.6 73.4 79% 85 30.06 0.0
18 08:35 SW 6 10.00 Fair CLR 78.8 73.4 84% 82 30.06 0.0
18 08:15 Calm 10.00 Thunderstorm in Vicinity CLR 78.8 73.4 84% 82 30.06 0.0
18 07:55 Calm 10.00 Fair CLR 78.8 73.4 84% 82 30.06 0.0
18 07:35 W 5 10.00 Fair CLR 78.8 73.4 84% 82 30.05 0.0
18 07:15 W 5 10.00 Fair CLR 78.8 73.4 84% 82 30.04 0.0
18 06:55 Calm 10.00 Fair CLR 78.8 73.4 84% 82 30.03 0.0
18 06:35 W 3 10.00 Thunderstorm in Vicinity CLR 78.8 73.4 84% 82 30.02 0.0
18 06:15 W 3 10.00 A Few Clouds FEW070 FEW080 78.8 73.4 84% 82 30.02 0.0
18 05:55 SW 5 10.00 Overcast BKN070 OVC080 78.8 73.4 84% 82 30.02 0.0
18 05:35 W 7 10.00 Mostly Cloudy FEW065 BKN080 78.8 73.4 84% 82 30.01 0.0
18 05:15 W 6 10.00 Mostly Cloudy SCT065 BKN080 BKN110 78.8 73.4 84% 82 30.01 0.0
18 04:55 W 6 10.00 Partly Cloudy SCT065 78.8 75.2 89% 82 30.01 0.0
18 04:35 W 5 10.00 A Few Clouds FEW055 80.6 75.2 84% 86 30 0.0
18 04:15 W 5 10.00 Fair CLR 80.6 75.2 84% 86 30 0.0
18 03:55 SW 6 10.00 Fair CLR 80.6 73.4 79% 85 30 0.0
18 03:35 SW 6 10.00 Partly Cloudy SCT027 80.6 73.4 79% 85 30 0.0
18 03:15 SW 6 10.00 Mostly Cloudy BKN027 BKN032 80.6 73.4 79% 85 30.01 0.0
18 02:55 SW 5 10.00 Partly Cloudy SCT027 SCT032 80.6 73.4 79% 85 30 0.0
18 02:35 SW 7 10.00 Overcast OVC027 80.6 73.4 79% 85 30 0.0
18 02:15 W 7 10.00 Mostly Cloudy BKN028 BKN048 80.6 73.4 79% 85 30 0.0
18 01:55 W 6 10.00 Fair CLR 80.6 71.6 74% 85 30.01 0.0
18 01:35 SW 5 10.00 Fair CLR 80.6 73.4 79% 85 30.01 0.0
18 01:15 SW 5 10.00 Fair CLR 80.6 73.4 79% 85 30.02 0.0
18 00:55 W 5 10.00 Fair CLR 80.6 73.4 79% 85 30.02 0.0
18 00:35 SW 5 10.00 Fair CLR 80.6 73.4 79% 85 30.03 0.0
18 00:15 W 6 10.00 Fair CLR 80.6 73.4 79% 85 30.03 0.0
17 23:55 SW 6 G 12 10.00 A Few Clouds FEW055 80.6 73.4 79% 85 30.03 0.0
17 23:35 SW 7 10.00 Mostly Cloudy SCT055 BKN070 82.4 73.4 74% 88 30.04 0.0
17 23:15 W 5 10.00 Partly Cloudy SCT055 82.4 73.4 74% 88 30.05 0.0
17 22:55 SW 5 10.00 Fair CLR 82.4 73.4 74% 88 30.05 0.0
17 22:35 W 7 10.00 Fair CLR 82.4 75.2 79% 89 30.05 0.0
17 22:15 W 9 10.00 Fair CLR 84.2 75.2 74% 92 30.05 0.0
17 21:55 SW 8 10.00 Fair CLR 84.2 75.2 74% 92 30.03 0.0
17 21:35 SW 10 10.00 Fair CLR 84.2 75.2 74% 92 30.03 0.0
Date Time (edt) Wind (mph) Vis. (mi.) Weather Sky Cond. Air Dwpt Max. Min. Relative Humidity Wind Chill (°F) Heat Index (°F) altimeter (in) sea level (mb) 1 hr 3 hr 6 hr
6 hour
Temperature (ºF) Pressure Precipitation (in)